Home > Weather > Naples > Past weeks

Flag for USA Past Weather in Naples, Florida, USA — Yesterday and Last 2 Weeks

Now
83 °F

Sunny.


Feels Like: 92 °F
Forecast: 76 / 90 °F
Wind: 5 mph from Southeast

Location: Naples Municipal

Current Time: Jun 30, 2016 at 10:14:16 AM

Latest Report: Jun 30, 2016 at 8:53 AM


Visibility: 10 mi

Pressure: 30.00 "Hg

Humidity: 82%

Dew Point: 77 °F

Location of NaplesLocation

Past Weather in Naples — Graph

°F

Naples Temperature Yesterday

Maximum temperature yesterday: 90 °F (at 1:53 PM)
Minimum temperature yesterday: 77 °F (at 2:53 AM)
Average temperature yesterday: 83 °F

High & Low Weather Summary for the Past Weeks

 TemperatureHumidityPressure
High91 °F (Jun 19, 2:53 PM)97% (Jun 18, 10:53 PM)30.14 "Hg (Jun 18, 10:53 PM)
Low72 °F (Jun 21, 4:53 AM)48% (Jun 20, 1:53 PM)29.94 "Hg (Jun 17, 6:53 PM)
Average82 °F76%30.04 "Hg
* Reported Jun 15 8:53 AM — Jun 30 8:53 AM, Naples, Weather by CustomWeather, © 2016

Note: Actual official high and low records may vary slightly from our data, if they occured in-between our weather recording intervals... More about our weather records

Advertising

Naples Weather History for the Previous 24 Hours

Scroll right to see more
 ConditionsComfort  
Time TempWeatherWind HumidityBarometerVisibility
8:53 AM
Thu, Jun 30
83 °FSunny.5 mph82%30.00 "Hg10 mi
7:53 AM79 °FPassing clouds.5 mph88%30.00 "Hg10 mi
6:53 AM76 °FClear.No wind94%29.99 "Hg10 mi
5:53 AM77 °FPassing clouds.5 mph94%29.97 "Hg10 mi
4:53 AM76 °FClear.5 mph94%29.96 "Hg10 mi
3:53 AM77 °FClear.5 mph90%29.97 "Hg10 mi
2:53 AM77 °FClear.6 mph90%29.98 "Hg10 mi
1:53 AM78 °FClear.No wind87%30.00 "Hg10 mi
12:53 AM78 °FClear.5 mph90%30.01 "Hg10 mi
11:53 PM
Wed, Jun 29
79 °FClear.8 mph84%30.03 "Hg10 mi
10:53 PM81 °FPassing clouds.7 mph79%30.03 "Hg10 mi
9:53 PM82 °FPassing clouds.No wind74%30.01 "Hg10 mi
8:53 PM84 °FPassing clouds.7 mph70%30.00 "Hg10 mi
7:53 PM86 °FPassing clouds.3 mph67%29.98 "Hg10 mi
6:53 PM86 °FPassing clouds.3 mph65%29.95 "Hg10 mi
5:53 PM86 °FPassing clouds.6 mph67%29.96 "Hg10 mi
4:53 PM86 °FPassing clouds.6 mph70%29.95 "Hg10 mi
3:53 PM84 °FBroken clouds.6 mph70%29.97 "Hg10 mi
2:53 PM89 °FThunderstorms. Scattered clouds.13 mph63%29.97 "Hg10 mi
1:53 PM90 °FSunny.12 mph61%29.99 "Hg10 mi
12:53 PM88 °FScattered clouds.10 mph65%30.00 "Hg10 mi
11:53 AM86 °FScattered clouds.7 mph65%30.01 "Hg10 mi
10:53 AM87 °FPassing clouds.7 mph65%30.01 "Hg10 mi
Weather by CustomWeather, © 2016

See weather overviewHow to use our weather pages